SWA1644 KMCO-KSRQ

Flight info

Callsign SWA1644
Flight time 0h 45m
Altitude 12000
Route FSHUN4 PLUMR CURSD
Aircraft B38M/M-SADE2E3GHIJ4J7P2RWZ/LB1D1

Departure

Time 2026-04-25 14:50
Airport Orlando International Airport (KMCO)

Arrival

Time 2026-04-25 15:36
Airport Sarasota Bradenton International Airport (KSRQ)
Time Latitude Longitude Altitude Speed Heading
2026-04-25 14:23 28.43510 -81.30375 103 ft 0 kts 74°
2026-04-25 14:37 28.43505 -81.30388 103 ft 4 kts 66°
2026-04-25 14:37 28.43496 -81.30416 103 ft 4 kts 60°
2026-04-25 14:37 28.43480 -81.30435 103 ft 4 kts 10°
2026-04-25 14:37 28.43467 -81.30432 103 ft 1 kts 328°
2026-04-25 14:38 28.43465 -81.30430 103 ft 0 kts 328°
2026-04-25 14:42 28.43470 -81.30434 103 ft 2 kts 328°
2026-04-25 14:42 28.43494 -81.30449 103 ft 6 kts 335°
2026-04-25 14:43 28.43542 -81.30460 103 ft 8 kts
2026-04-25 14:43 28.43600 -81.30425 103 ft 11 kts 34°
2026-04-25 14:43 28.43657 -81.30354 103 ft 14 kts 52°
2026-04-25 14:43 28.43734 -81.30278 103 ft 16 kts 26°
2026-04-25 14:44 28.43853 -81.30255 104 ft 19 kts 359°
2026-04-25 14:44 28.43914 -81.30363 103 ft 19 kts 274°
2026-04-25 14:44 28.43924 -81.30530 102 ft 23 kts 274°
2026-04-25 14:44 28.43933 -81.30685 123 ft 20 kts 274°
2026-04-25 14:45 28.43940 -81.30801 125 ft 23 kts 274°
2026-04-25 14:45 28.43941 -81.31094 120 ft 27 kts 270°
2026-04-25 14:45 28.43931 -81.31327 103 ft 27 kts 266°
2026-04-25 14:45 28.43926 -81.31463 104 ft 18 kts 270°
2026-04-25 14:46 28.43925 -81.31614 105 ft 20 kts 269°
2026-04-25 14:46 28.43922 -81.31774 109 ft 20 kts 269°
2026-04-25 14:46 28.44002 -81.31878 112 ft 20 kts 344°
2026-04-25 14:46 28.44148 -81.31900 110 ft 23 kts 359°
2026-04-25 14:47 28.44320 -81.31902 109 ft 26 kts 359°
2026-04-25 14:47 28.44443 -81.31903 108 ft 28 kts 360°
2026-04-25 14:47 28.44712 -81.31905 104 ft 24 kts 359°
2026-04-25 14:47 28.44747 -81.31905 104 ft 0 kts 359°
2026-04-25 14:48 28.44782 -81.31909 105 ft 9 kts 345°
2026-04-25 14:48 28.44829 -81.31959 105 ft 9 kts 280°
2026-04-25 14:48 28.44825 -81.32043 104 ft 13 kts 269°
2026-04-25 14:49 28.44824 -81.32157 103 ft 16 kts 269°
2026-04-25 14:49 28.44788 -81.32220 104 ft 4 kts 192°
2026-04-25 14:49 28.44754 -81.32227 104 ft 7 kts 190°
2026-04-25 14:49 28.44671 -81.32227 106 ft 18 kts 177°
2026-04-25 14:50 28.44467 -81.32226 107 ft 50 kts 180°
2026-04-25 14:50 28.43847 -81.32220 112 ft 126 kts 179°
2026-04-25 14:50 28.42806 -81.32225 360 ft 162 kts 182°
2026-04-25 14:50 28.41611 -81.32205 952 ft 182 kts 180°
2026-04-25 14:51 28.40406 -81.32236 2026 ft 170 kts 183°
2026-04-25 14:51 28.39160 -81.32407 2563 ft 191 kts 195°
2026-04-25 14:51 28.37824 -81.32912 3037 ft 213 kts 200°
2026-04-25 14:51 28.36357 -81.33502 3524 ft 234 kts 200°
2026-04-25 14:52 28.34749 -81.34135 4118 ft 249 kts 199°
2026-04-25 14:52 28.33123 -81.34766 5191 ft 252 kts 199°
2026-04-25 14:52 28.31408 -81.35425 5869 ft 269 kts 199°
2026-04-25 14:52 28.30214 -81.35881 6364 ft 276 kts 199°
2026-04-25 14:53 28.27776 -81.36810 7565 ft 281 kts 199°
2026-04-25 14:53 28.25903 -81.37523 8426 ft 286 kts 199°
2026-04-25 14:53 28.23998 -81.38247 9249 ft 291 kts 199°
2026-04-25 14:53 28.22063 -81.38982 10046 ft 295 kts 199°
2026-04-25 14:54 28.20076 -81.39736 10574 ft 310 kts 199°
2026-04-25 14:54 28.17975 -81.40533 10958 ft 326 kts 199°
2026-04-25 14:54 28.15779 -81.41365 11431 ft 338 kts 199°
2026-04-25 14:54 28.13512 -81.42224 11849 ft 348 kts 199°
2026-04-25 14:55 28.11218 -81.43093 11954 ft 358 kts 199°
2026-04-25 14:55 28.08792 -81.44012 11951 ft 374 kts 199°
2026-04-25 14:55 28.06278 -81.44964 11956 ft 388 kts 199°
2026-04-25 14:55 28.03678 -81.45948 11957 ft 399 kts 199°
2026-04-25 14:56 28.01027 -81.46951 11968 ft 405 kts 199°
2026-04-25 14:56 27.98338 -81.47968 11982 ft 408 kts 199°
2026-04-25 14:56 27.95638 -81.48988 11993 ft 409 kts 199°
2026-04-25 14:56 27.92939 -81.50034 11996 ft 409 kts 202°
2026-04-25 14:57 27.90499 -81.51657 12006 ft 409 kts 217°
2026-04-25 14:57 27.88209 -81.53569 11995 ft 409 kts 217°
2026-04-25 14:57 27.85932 -81.55490 12003 ft 409 kts 217°
2026-04-25 14:57 27.83652 -81.57428 12005 ft 409 kts 217°
2026-04-25 14:58 27.81407 -81.59345 11996 ft 409 kts 217°
2026-04-25 14:58 27.79133 -81.61288 12000 ft 409 kts 217°
2026-04-25 14:58 27.76864 -81.63227 11998 ft 409 kts 217°
2026-04-25 14:58 27.74598 -81.65163 12001 ft 409 kts 217°
2026-04-25 14:59 27.72328 -81.67102 11998 ft 408 kts 217°
2026-04-25 14:59 27.70133 -81.69011 12012 ft 386 kts 221°
2026-04-25 14:59 27.68420 -81.71245 12019 ft 367 kts 232°
2026-04-25 14:59 27.66908 -81.73470 12036 ft 349 kts 232°
2026-04-25 15:00 27.65488 -81.75571 12034 ft 333 kts 232°
2026-04-25 15:00 27.64080 -81.77665 11622 ft 330 kts 233°
2026-04-25 15:00 27.62721 -81.79690 11171 ft 322 kts 233°
2026-04-25 15:00 27.61398 -81.81660 10866 ft 307 kts 233°
2026-04-25 15:01 27.60146 -81.83526 10685 ft 290 kts 233°
2026-04-25 15:01 27.58944 -81.85317 10535 ft 282 kts 233°
2026-04-25 15:01 27.57778 -81.87053 10385 ft 274 kts 233°
2026-04-25 15:01 27.56643 -81.88743 10244 ft 270 kts 233°
2026-04-25 15:02 27.55492 -81.90456 10126 ft 278 kts 233°
2026-04-25 15:02 27.54312 -81.92212 9911 ft 284 kts 233°
2026-04-25 15:02 27.53117 -81.93989 9592 ft 285 kts 233°
2026-04-25 15:02 27.51919 -81.95769 9281 ft 285 kts 233°
2026-04-25 15:03 27.50725 -81.97543 8951 ft 283 kts 233°
2026-04-25 15:03 27.49539 -81.99305 8643 ft 281 kts 233°
2026-04-25 15:03 27.48361 -82.01054 8343 ft 279 kts 232°
2026-04-25 15:03 27.47412 -82.02935 7996 ft 277 kts 253°
2026-04-25 15:04 27.46977 -82.05016 7703 ft 274 kts 256°
2026-04-25 15:04 27.46546 -82.07095 7425 ft 271 kts 257°
2026-04-25 15:04 27.46125 -82.09157 7148 ft 269 kts 257°
2026-04-25 15:04 27.45709 -82.11209 6852 ft 268 kts 257°
2026-04-25 15:05 27.45485 -82.13278 6515 ft 267 kts 276°
2026-04-25 15:05 27.45994 -82.15278 6225 ft 266 kts 290°
2026-04-25 15:05 27.46651 -82.17215 5952 ft 264 kts 290°
2026-04-25 15:06 27.47982 -82.21063 5357 ft 262 kts 291°
2026-04-25 15:06 27.48650 -82.22969 5074 ft 261 kts 291°
2026-04-25 15:06 27.49316 -82.24859 4787 ft 259 kts 291°
2026-04-25 15:06 27.49981 -82.26741 4490 ft 258 kts 291°
2026-04-25 15:07 27.50645 -82.28617 4207 ft 257 kts 291°
2026-04-25 15:07 27.51300 -82.30467 4042 ft 251 kts 291°
2026-04-25 15:07 27.51968 -82.32236 4009 ft 238 kts 294°
2026-04-25 15:07 27.52636 -82.33886 4014 ft 225 kts 294°
2026-04-25 15:08 27.53274 -82.35463 3995 ft 222 kts 294°
2026-04-25 15:08 27.53931 -82.37086 4010 ft 239 kts 294°
2026-04-25 15:08 27.54643 -82.38849 3999 ft 252 kts 294°
2026-04-25 15:08 27.55377 -82.40668 4002 ft 257 kts 294°
2026-04-25 15:09 27.56121 -82.42510 4005 ft 258 kts 294°
2026-04-25 15:09 27.56865 -82.44351 4000 ft 258 kts 294°
2026-04-25 15:09 27.58354 -82.48034 4009 ft 258 kts 294°
2026-04-25 15:10 27.59101 -82.49879 3996 ft 258 kts 294°
2026-04-25 15:10 27.59847 -82.51722 4002 ft 258 kts 294°
2026-04-25 15:10 27.61331 -82.55386 3966 ft 259 kts 294°
2026-04-25 15:11 27.62082 -82.57240 3694 ft 259 kts 294°
2026-04-25 15:11 27.62825 -82.59071 3507 ft 252 kts 294°
2026-04-25 15:11 27.63545 -82.60844 3320 ft 244 kts 294°
2026-04-25 15:12 27.64784 -82.64294 2871 ft 231 kts 279°
2026-04-25 15:12 27.64963 -82.66048 2664 ft 225 kts 274°
2026-04-25 15:12 27.65088 -82.67785 2454 ft 220 kts 274°
2026-04-25 15:12 27.65130 -82.68364 2394 ft 217 kts 274°
2026-04-25 15:13 27.65074 -82.71113 2035 ft 208 kts 247°
2026-04-25 15:13 27.63656 -82.73044 2016 ft 186 kts 224°
2026-04-25 15:13 27.62658 -82.73966 2030 ft 185 kts 215°
2026-04-25 15:14 27.61590 -82.74787 1990 ft 185 kts 214°
2026-04-25 15:14 27.60015 -82.75396 1935 ft 185 kts 174°
2026-04-25 15:14 27.59162 -82.75195 1991 ft 186 kts 164°
2026-04-25 15:14 27.57933 -82.74767 2037 ft 187 kts 163°
2026-04-25 15:15 27.57094 -82.74466 2033 ft 187 kts 163°
2026-04-25 15:15 27.55541 -82.73647 1997 ft 187 kts 146°
2026-04-25 15:15 27.54537 -82.72710 2000 ft 188 kts 137°
2026-04-25 15:15 27.53602 -82.71676 2003 ft 188 kts 135°
2026-04-25 15:16 27.52683 -82.70625 2002 ft 188 kts 135°
2026-04-25 15:16 27.51766 -82.69569 2002 ft 188 kts 135°
2026-04-25 15:16 27.49933 -82.67460 2023 ft 188 kts 135°
2026-04-25 15:17 27.48099 -82.65349 2010 ft 188 kts 135°
2026-04-25 15:17 27.47193 -82.64305 1910 ft 189 kts 135°
2026-04-25 15:17 27.46279 -82.63252 1700 ft 187 kts 135°
2026-04-25 15:18 27.45383 -82.62220 1471 ft 180 kts 135°
2026-04-25 15:18 27.43769 -82.60365 1065 ft 151 kts 135°
2026-04-25 15:18 27.43048 -82.59535 854 ft 147 kts 135°
2026-04-25 15:19 27.42335 -82.58714 660 ft 146 kts 135°
2026-04-25 15:19 27.41863 -82.58173 528 ft 146 kts 135°
2026-04-25 15:19 27.40916 -82.57083 275 ft 145 kts 136°
2026-04-25 15:19 27.40204 -82.56282 84 ft 144 kts 133°
2026-04-25 15:20 27.39514 -82.55441 554 ft 152 kts 134°
2026-04-25 15:20 27.38705 -82.54517 1283 ft 182 kts 137°
2026-04-25 15:20 27.37759 -82.53441 1502 ft 206 kts 126°
2026-04-25 15:20 27.37378 -82.51872 1531 ft 219 kts 87°
2026-04-25 15:21 27.37361 -82.50133 1500 ft 225 kts 105°
2026-04-25 15:21 27.36845 -82.48446 1739 ft 227 kts 110°
2026-04-25 15:21 27.36443 -82.46744 2204 ft 230 kts 92°
2026-04-25 15:21 27.36769 -82.44987 2712 ft 233 kts 67°
2026-04-25 15:22 27.37465 -82.43329 3209 ft 237 kts 64°
2026-04-25 15:22 27.38396 -82.41814 3529 ft 237 kts 39°
2026-04-25 15:22 27.39856 -82.40976 3839 ft 239 kts 16°
2026-04-25 15:22 27.41468 -82.40487 3936 ft 240 kts 14°
2026-04-25 15:23 27.43086 -82.40025 3987 ft 238 kts 14°
2026-04-25 15:23 27.44718 -82.39699 3966 ft 240 kts 357°
2026-04-25 15:23 27.46290 -82.40230 3967 ft 238 kts 326°
2026-04-25 15:23 27.47544 -82.41452 4017 ft 240 kts 314°
2026-04-25 15:24 27.48720 -82.42788 4000 ft 240 kts 314°
2026-04-25 15:24 27.49871 -82.44114 4001 ft 240 kts 313°
2026-04-25 15:24 27.51009 -82.45496 4008 ft 240 kts 312°
2026-04-25 15:24 27.51758 -82.46414 3999 ft 240 kts 312°
2026-04-25 15:25 27.53268 -82.48263 3994 ft 240 kts 312°
2026-04-25 15:25 27.54400 -82.49649 4012 ft 240 kts 312°
2026-04-25 15:25 27.55529 -82.51032 3991 ft 240 kts 312°
2026-04-25 15:25 27.56555 -82.52504 3994 ft 238 kts 298°
2026-04-25 15:26 27.57279 -82.54165 4015 ft 239 kts 294°
2026-04-25 15:26 27.57973 -82.55870 3998 ft 239 kts 294°
2026-04-25 15:26 27.58667 -82.57576 3996 ft 239 kts 294°
2026-04-25 15:26 27.59359 -82.59281 4001 ft 239 kts 294°
2026-04-25 15:27 27.60053 -82.60987 4000 ft 239 kts 294°
2026-04-25 15:27 27.60745 -82.62688 4000 ft 239 kts 294°
2026-04-25 15:27 27.62103 -82.66023 4041 ft 220 kts 294°
2026-04-25 15:28 27.62665 -82.67564 4008 ft 205 kts 280°
2026-04-25 15:28 27.62553 -82.69066 3978 ft 192 kts 249°
2026-04-25 15:28 27.62115 -82.70486 3998 ft 193 kts 263°
2026-04-25 15:28 27.62242 -82.71962 3861 ft 189 kts 283°
2026-04-25 15:29 27.62460 -82.73410 3626 ft 187 kts 264°
2026-04-25 15:29 27.61963 -82.74716 3355 ft 182 kts 225°
2026-04-25 15:29 27.60881 -82.75388 3084 ft 180 kts 196°
2026-04-25 15:29 27.59656 -82.75703 2834 ft 182 kts 186°
2026-04-25 15:30 27.58396 -82.75524 2537 ft 184 kts 165°
2026-04-25 15:30 27.57175 -82.75078 2291 ft 184 kts 156°
2026-04-25 15:30 27.56083 -82.74329 2073 ft 182 kts 143°
2026-04-25 15:30 27.55148 -82.73398 1974 ft 179 kts 137°
2026-04-25 15:31 27.54280 -82.72439 1997 ft 172 kts 136°
2026-04-25 15:31 27.53441 -82.71488 1986 ft 170 kts 135°
2026-04-25 15:31 27.52613 -82.70540 1990 ft 170 kts 135°
2026-04-25 15:31 27.51785 -82.69589 1997 ft 170 kts 135°
2026-04-25 15:32 27.50955 -82.68636 2000 ft 170 kts 135°
2026-04-25 15:32 27.50127 -82.67684 2026 ft 170 kts 135°
2026-04-25 15:32 27.49299 -82.66730 2048 ft 170 kts 135°
2026-04-25 15:33 27.47656 -82.64839 2019 ft 170 kts 135°
2026-04-25 15:33 27.46828 -82.63885 1824 ft 170 kts 135°
2026-04-25 15:33 27.46001 -82.62933 1626 ft 170 kts 135°
2026-04-25 15:33 27.45179 -82.61987 1422 ft 169 kts 135°
2026-04-25 15:34 27.44361 -82.61045 1227 ft 167 kts 135°
2026-04-25 15:34 27.43580 -82.60148 1021 ft 153 kts 135°
2026-04-25 15:34 27.42849 -82.59306 804 ft 148 kts 135°
2026-04-25 15:34 27.42376 -82.58761 669 ft 146 kts 135°
2026-04-25 15:35 27.40719 -82.56860 214 ft 145 kts 135°
2026-04-25 15:35 27.40016 -82.56052 45 ft 141 kts 135°
2026-04-25 15:35 27.39425 -82.55379 31 ft 91 kts 135°
2026-04-25 15:36 27.39087 -82.54994 31 ft 15 kts 135°
2026-04-25 15:36 27.39006 -82.54899 31 ft 18 kts 129°
2026-04-25 15:36 27.38923 -82.54825 33 ft 15 kts 180°
2026-04-25 15:37 27.38835 -82.54894 34 ft 17 kts 221°
2026-04-25 15:37 27.38803 -82.55001 33 ft 16 kts 278°
2026-04-25 15:37 27.38843 -82.55128 33 ft 17 kts 288°
2026-04-25 15:37 27.38910 -82.55226 33 ft 16 kts 336°
2026-04-25 15:38 27.39019 -82.55260 33 ft 17 kts 329°
2026-04-25 15:38 27.39103 -82.55358 33 ft 15 kts 288°
2026-04-25 15:38 27.39066 -82.55453 33 ft 15 kts 225°
2026-04-25 15:38 27.39022 -82.55474 33 ft 2 kts 144°
2026-04-25 15:39 27.39004 -82.55450 33 ft 4 kts 123°
2026-04-25 15:39 27.38998 -82.55439 33 ft 0 kts 123°